Showing default

HADES-ICM, 63492

Orbit data source: Space-Track

HADES-ICM, 63492 is a Spanish payload satellite in SSO that was launched on Sat, 15 Mar 2025 UTC via an FALCON 9 launch vehicle from the Air Force Western Test Range (AFWTR). Payload-class satellites include a variety of spacecraft equipped with specific instruments for various scientific and technological missions. These include communications satellites like Starlink; space stations such as the ISS; scientific satellites like the Hubble; Earth observation satellites from companies like Planet Labs, Umbra, and HawkEye 360; GPS; miniature CubeSats for education and research; and military/defense satellites.

Not visible in the next 10 days
Identifier
63492, 2025-052BN
Orbit
SSO
Country
Flag of ESES / SPN
Related business
Manufacturer
Hydra Space
Mission
Operational Amateur Communications
Bus & Motor
PQ 1.5P, Unknown motor
Mass
0.375 kg wet, 0.375 kg dry
Launch date (UTC)
2025-03-15 (1 year ago)
Launch vehicle
FALCON 9
Launch site
Air Force Western Test Range (AFWTR)
Object type
Payload
Rocket body
Debris
Shape & HBR
Box, 1.1 m
Radar Cross Section
0.006 m², Small (<0.1 m²)

Expand to show TLE details & history
Last TLE update: 8 hours ago

TLE from 8 hours ago
0 HADES-ICM
1 63492U 25052BN  26121.18628197  .00635941  00000-0  30472-2 0  9998
2 63492  97.3818  24.3310 0004908 153.9565 206.1951 15.81085461 63361
Epoch: 2026-05-01T04:28Z
TLE epoch observation values (Epoch: 2026-05-01T04:28:14.762Z)
Latitude
Longitude
98.14734°
Altitude
333.497 km
Speed
7.707 km/s
True Right ascension
01h 37m 19s
True Declination
0° 00' 00"
Sunlit
Object was in daylight at epoch
Visualization orbit readout
Latitude
Unknown
Longitude
Unknown
Altitude
Unknown
Speed
Unknown
Apparent Right ascension
Unknown
Apparent Declination
Unknown
Sunlit
N/A
Visualization observer readout
Local Sidereal Time
20:34:28
Azimuth
Unknown
Elevation
Unknown
Doppler factor
Unknown
Orbital elements
Apogee altitude
327.543 km
Perigee altitude
320.964 km
Semi-major axis
6,702.391 km
Eccentricity
0.00049
Inclination
97.3818°
RAAN
24.331°
Arg. of periapsis
153.9565°
True anomaly
206.17029°
Mean anomaly
206.1951°
Eccentric anomaly
206.18269°
Mean motion
3.95547 °/min
Orbital period
91.01 mins
BSTAR
0.0030472
Loading maneuver chart data...
Computing Atmospheric mass density...
Loading historical data...
Loading historical data...
Loading historical data...
Loading historical data...
Loading historical data...
Loading historical data...
Loading historical data...

Documentation

Showing up to 5 results
|